Location: Unspecified
(0.0000°N, 0.0000°E)
Time: 18:08:18
(UTC+00:00)

Vanguard 2 Rocket - All Passes

Search period start: 18 January 2020 00:00
Search period end: 28 January 2020 00:00
Orbit: 554 x 3326 km, 32.9° (Epoch: 17 January)

Date Brightness Start Highest point End Pass type
(mag) Time Alt. Az. Time Alt. Az. Time Alt. Az.
18 Jan - 01:10:30 10° S 01:13:17 15° SSE 01:15:42 10° ESE night (unlit)
18 Jan - 03:22:32 10° WSW 03:26:20 45° NW 03:30:27 10° NE visible
18 Jan - 10:11:46 10° N 10:18:30 15° NNE 10:26:48 10° ENE daylight
18 Jan - 12:22:46 10° NNW 12:37:35 44° NE 12:56:19 10° ESE daylight
18 Jan - 14:37:26 10° NW 14:56:33 85° SW 15:15:51 10° SE daylight
18 Jan - 16:57:46 10° W 17:15:45 39° SW 17:30:18 10° SSE daylight
18 Jan - 19:28:52 10° SW 19:35:32 13° SSW 19:41:09 10° S visible
19 Jan - 02:22:51 10° SW 02:27:12 75° SE 02:31:08 10° ENE night (unlit)
19 Jan - 11:23:23 10° NNW 11:35:30 32° NE 11:51:45 10° E daylight
19 Jan - 13:36:32 10° NW 13:54:01 77° NE 14:14:15 10° ESE daylight
19 Jan - 15:54:13 10° WNW 16:13:17 51° SW 16:30:20 10° SE daylight
19 Jan - 18:20:45 10° WSW 18:33:08 20° SSW 18:43:01 10° SSE visible
20 Jan - 01:23:17 10° SW 01:27:55 34° SSE 01:31:34 10° E night (unlit)
20 Jan - 03:37:59 10° WNW 03:40:43 18° NNW 03:43:36 10° NNE night (unlit)
20 Jan - 10:24:44 10° NNW 10:33:42 21° NNE 10:45:38 10° ENE daylight
20 Jan - 12:36:21 10° NW 12:51:44 59° NE 13:11:43 10° ESE daylight
20 Jan - 14:51:55 10° WNW 15:10:40 66° SW 15:29:45 10° SE daylight
20 Jan - 17:14:32 10° W 17:30:33 29° SSW 17:43:46 10° SSE daylight
20 Jan - 19:49:04 10° SSW 19:51:35 11° SSW 19:53:56 10° S visible
21 Jan - 00:23:42 10° SSW 00:28:13 21° SSE 00:31:39 10° ESE night (unlit)
21 Jan - 02:37:23 10° WSW 02:41:25 38° NW 02:45:07 10° NE night (unlit)
21 Jan - 09:27:34 10° N 09:32:05 13° NNE 09:37:25 10° NE daylight
21 Jan - 11:36:48 10° NNW 11:49:49 44° NE 12:08:04 10° ESE daylight
21 Jan - 13:50:38 10° WNW 14:08:04 83° SW 14:28:28 10° SE daylight
21 Jan - 16:10:02 10° W 16:27:49 39° SSW 16:43:53 10° SSE daylight
21 Jan - 18:39:35 10° SW 18:48:54 16° SSW 18:56:38 10° SSE visible
21 Jan - 23:23:58 10° SSW 23:28:03 15° SSE 23:31:16 10° SE visible
22 Jan - 01:37:07 10° SW 01:42:18 89° SSE 01:46:14 10° NE night (unlit)
22 Jan - 10:37:52 10° NNW 10:48:18 30° NE 11:03:10 10° E daylight
22 Jan - 12:50:10 10° NW 13:05:44 78° NE 13:26:24 10° ESE daylight
22 Jan - 15:06:59 10° WNW 15:25:01 50° SSW 15:43:24 10° SE daylight
22 Jan - 17:32:19 10° WSW 17:45:57 22° SSW 17:57:23 10° SSE daylight
22 Jan - 20:07:36 10° S 20:07:57 10° S 20:08:17 10° S visible
22 Jan - 22:23:49 10° S 22:27:23 13° SSE 22:30:21 10° SE visible
23 Jan - 00:36:54 10° SW 00:42:56 44° SSE 00:47:02 10° ENE night (unlit)
23 Jan - 02:53:08 10° WNW 02:55:39 15° NW 02:58:03 10° N night (unlit)
23 Jan - 09:39:47 10° N 09:47:03 19° NE 09:56:48 10° ENE daylight
23 Jan - 11:50:24 10° NW 12:03:50 60° NE 12:23:27 10° ESE daylight
23 Jan - 14:05:10 10° WNW 14:22:17 64° SW 14:42:19 10° SE daylight
23 Jan - 16:26:45 10° W 16:42:52 29° SSW 16:57:27 10° SSE daylight
23 Jan - 18:58:16 10° SW 19:05:11 13° SSW 19:11:06 10° SSE visible
23 Jan - 21:22:44 10° S 21:26:10 12° S 21:29:06 10° SSE visible
23 Jan - 23:36:32 10° SSW 23:43:06 28° SSE 23:47:30 10° E visible
24 Jan - 01:51:47 10° WSW 01:56:27 35° NW 02:00:06 10° NNE night (unlit)
24 Jan - 10:51:13 10° NNW 11:02:26 42° NE 11:19:29 10° ESE daylight
24 Jan - 13:04:20 10° WNW 13:19:49 81° SW 13:40:35 10° SE daylight
24 Jan - 15:22:49 10° W 15:39:46 38° SSW 15:56:58 10° SSE daylight
24 Jan - 17:50:47 10° SW 18:01:58 17° SSW 18:11:28 10° SSE daylight
24 Jan - 20:19:54 10° SSW 20:24:17 12° S 20:28:03 10° SSE visible
24 Jan - 22:35:52 10° SSW 22:42:45 22° SSE 22:47:32 10° ESE visible
25 Jan - 00:50:52 10° WSW 00:57:18 80° NW 01:01:32 10° NE night (unlit)
25 Jan - 09:52:42 10° NNW 10:01:29 28° NE 10:14:27 10° E daylight
25 Jan - 12:04:15 10° NW 12:17:48 80° NE 12:38:06 10° ESE daylight
25 Jan - 14:20:18 10° W 14:36:49 49° SSW 14:55:57 10° SE daylight
25 Jan - 16:44:22 10° WSW 16:58:32 23° SSW 17:11:17 10° SSE daylight
25 Jan - 19:15:04 10° SSW 19:21:42 13° S 19:27:19 10° SSE visible
25 Jan - 21:34:42 10° SSW 21:41:52 18° SSE 21:47:05 10° SE visible
25 Jan - 23:49:58 10° SW 23:57:49 56° SSE 00:02:35 10° ENE visible
26 Jan - 02:07:41 10° WNW 02:10:30 15° NW 02:12:58 10° N night (unlit)
26 Jan - 08:55:13 10° N 09:00:46 16° NE 09:08:01 10° ENE daylight
26 Jan - 11:04:50 10° NW 11:16:21 59° NE 11:34:51 10° ESE daylight
26 Jan - 13:18:56 10° WNW 13:34:08 62° SSW 13:54:22 10° SE daylight
26 Jan - 15:39:29 10° WSW 15:55:04 29° SSW 16:10:37 10° SSE daylight
26 Jan - 18:08:54 10° SW 18:18:28 15° S 18:26:36 10° SSE daylight
26 Jan - 20:32:44 10° SSW 20:40:21 16° S 20:46:09 10° SE visible
26 Jan - 22:48:54 10° SW 22:57:49 37° SSE 23:03:13 10° E visible
27 Jan - 01:05:38 10° WSW 01:11:21 35° NW 01:15:22 10° NNE night (unlit)
27 Jan - 10:05:59 10° NNW 10:15:29 41° NE 10:30:47 10° ESE daylight
27 Jan - 12:18:28 10° WNW 12:31:55 78° SW 12:52:13 10° SE daylight
27 Jan - 14:36:09 10° W 14:51:47 37° SSW 15:09:31 10° SE daylight
27 Jan - 17:02:31 10° SW 17:14:48 19° SSW 17:25:44 10° SSE daylight
27 Jan - 19:29:41 10° SSW 19:38:07 16° S 19:44:47 10° SE visible
27 Jan - 21:47:32 10° SSW 21:57:15 29° SSE 22:03:25 10° E visible
